timestamp,wind_dir_avg,wind_spd_avg,wind_spd_max_dir,wind_spd_gust,battery_voltage,lat,long
2024-03-12 00:04:01+00:00,96.0,6.12,103.0,10.77,12.17,47.59359,-54.27349
2024-03-12 00:14:00+00:00,101.0,5.13,78.0,8.2,12.09,47.59359,-54.27349
2024-03-12 00:24:00+00:00,89.0,4.59,91.0,7.37,12.09,47.59359,-54.27349
2024-03-12 00:34:00+00:00,88.0,6.94,73.0,10.44,12.09,47.59359,-54.27349
2024-03-12 00:44:00+00:00,84.0,5.21,74.0,7.6,12.09,47.59359,-54.27349
2024-03-12 00:54:00+00:00,96.0,4.73,138.0,8.05,12.09,47.59359,-54.27349
2024-03-12 01:04:00+00:00,113.0,5.96,123.0,8.25,12.09,47.59359,-54.27349
2024-03-12 01:14:00+00:00,93.0,5.56,91.0,8.84,12.09,47.59359,-54.27349
2024-03-12 01:24:00+00:00,101.0,5.09,86.0,9.27,12.09,47.59359,-54.27349
2024-03-12 01:34:00+00:00,96.0,4.2,66.0,7.18,12.09,47.59359,-54.27349
2024-03-12 01:44:00+00:00,110.0,5.8,125.0,11.67,12.09,47.59359,-54.27349
2024-03-12 01:54:00+00:00,110.0,5.17,136.0,9.2,12.09,47.59359,-54.27349
2024-03-12 02:04:00+00:00,108.0,5.52,137.0,8.52,12.09,47.59359,-54.27349
2024-03-12 02:14:01+00:00,103.0,3.81,77.0,6.53,12.09,47.59359,-54.27349
2024-03-12 02:24:01+00:00,118.0,5.63,128.0,8.09,12.09,47.59359,-54.27349
2024-03-12 02:34:01+00:00,96.0,3.9,122.0,6.96,12.09,47.59359,-54.27349
2024-03-12 02:44:01+00:00,106.0,4.71,124.0,6.76,12.09,47.59359,-54.27349
2024-03-12 02:54:01+00:00,100.0,2.15,121.0,4.85,12.09,47.59359,-54.27349
2024-03-12 03:04:01+00:00,92.0,3.32,112.0,5.24,12.09,47.59359,-54.27349
2024-03-12 03:14:00+00:00,99.0,4.39,112.0,6.41,12.09,47.59359,-54.27349
2024-03-12 03:24:00+00:00,98.0,4.8,115.0,7.06,12.09,47.59359,-54.27349
2024-03-12 03:34:00+00:00,93.0,2.55,100.0,3.74,12.09,47.59359,-54.27349
2024-03-12 03:44:00+00:00,85.0,3.94,93.0,5.76,12.09,47.59359,-54.27349
2024-03-12 03:54:00+00:00,71.0,4.75,84.0,6.19,12.09,47.59359,-54.27349
2024-03-12 04:04:00+00:00,68.0,6.43,63.0,7.32,12.09,47.59359,-54.27349
2024-03-12 04:14:00+00:00,85.0,4.86,85.0,9.42,12.01,47.59359,-54.27349
2024-03-12 04:24:00+00:00,76.0,4.76,69.0,6.42,12.01,47.59359,-54.27349
2024-03-12 04:34:00+00:00,94.0,3.64,78.0,6.16,12.01,47.59359,-54.27349
2024-03-12 04:44:00+00:00,105.0,5.27,110.0,7.3,12.01,47.59359,-54.27349
2024-03-12 04:54:00+00:00,95.0,3.83,135.0,6.14,12.01,47.59359,-54.27349
2024-03-12 05:04:00+00:00,73.0,3.02,74.0,4.61,12.01,47.59359,-54.27349
2024-03-12 05:14:00+00:00,94.0,2.54,114.0,5.78,12.01,47.59359,-54.27349
2024-03-12 05:24:00+00:00,98.0,3.49,69.0,5.5,12.01,47.59359,-54.27349
2024-03-12 05:34:00+00:00,87.0,3.3,70.0,6.33,12.01,47.59359,-54.27349
2024-03-12 05:44:00+00:00,112.0,3.4,118.0,5.66,12.01,47.59359,-54.27349
2024-03-12 05:54:00+00:00,109.0,2.86,115.0,6.14,12.01,47.59359,-54.27349
2024-03-12 06:04:00+00:00,115.0,3.59,121.0,5.44,12.01,47.59359,-54.27349
2024-03-12 06:14:00+00:00,96.0,2.73,87.0,5.35,12.01,47.59359,-54.27349
2024-03-12 06:24:00+00:00,71.0,2.61,82.0,3.52,12.01,47.59359,-54.27349
2024-03-12 06:34:00+00:00,97.0,4.33,107.0,6.11,12.01,47.59359,-54.27349
2024-03-12 06:44:00+00:00,91.0,4.18,96.0,6.55,12.01,47.59359,-54.27349
2024-03-12 06:54:00+00:00,115.0,5.77,144.0,9.19,12.01,47.59359,-54.27349
2024-03-12 07:04:00+00:00,98.0,4.41,118.0,6.75,12.01,47.59359,-54.27349
2024-03-12 07:14:01+00:00,106.0,4.63,129.0,7.63,12.01,47.59359,-54.27349
2024-03-12 07:24:01+00:00,102.0,4.53,84.0,9.74,12.01,47.59359,-54.27349
2024-03-12 07:34:01+00:00,103.0,4.35,122.0,6.8,12.01,47.59359,-54.27349
2024-03-12 07:44:01+00:00,90.0,3.92,105.0,6.85,12.01,47.59359,-54.27349
2024-03-12 07:54:01+00:00,95.0,3.21,98.0,4.85,12.01,47.59359,-54.27349
2024-03-12 08:04:01+00:00,87.0,3.06,72.0,5.42,12.01,47.59359,-54.27349
2024-03-12 08:14:00+00:00,79.0,4.34,78.0,6.9,12.01,47.59359,-54.27349
2024-03-12 08:24:00+00:00,73.0,4.24,69.0,5.12,12.01,47.59359,-54.27349
2024-03-12 08:34:00+00:00,50.0,5.5,58.0,7.46,12.01,47.59359,-54.27349
2024-03-12 08:44:00+00:00,54.0,6.1,67.0,9.06,12.01,47.59359,-54.27349
2024-03-12 08:54:00+00:00,51.0,6.6,63.0,9.42,12.01,47.59359,-54.27349
2024-03-12 09:04:00+00:00,39.0,5.44,38.0,6.06,12.01,47.59359,-54.27349
2024-03-12 10:14:00+00:00,321.0,1.66,324.0,2.01,11.93,47.59359,-54.27349
2024-03-12 10:24:00+00:00,307.0,1.59,313.0,1.96,11.93,47.59359,-54.27349
2024-03-12 10:34:00+00:00,343.0,0.85,71.0,3.57,11.93,47.59359,-54.27349
2024-03-12 10:44:00+00:00,297.0,2.24,299.0,2.36,11.93,47.59359,-54.27349
2024-03-12 10:54:00+00:00,284.0,1.61,283.0,2.59,11.93,47.59359,-54.27349
2024-03-12 11:04:00+00:00,290.0,2.29,285.0,2.63,11.93,47.59359,-54.27349
2024-03-12 11:14:00+00:00,284.0,2.28,280.0,2.78,12.01,47.59359,-54.27349
2024-03-12 11:24:00+00:00,127.0,0.16,102.0,0.66,12.01,47.59359,-54.27349
2024-03-12 11:34:00+00:00,193.0,0.96,191.0,1.32,12.01,47.59359,-54.27349
2024-03-12 11:44:00+00:00,158.0,3.71,157.0,3.96,12.01,47.59359,-54.27349
2024-03-12 11:54:00+00:00,189.0,3.45,216.0,4.8,12.01,47.59359,-54.27349
2024-03-12 12:04:00+00:00,225.0,4.71,226.0,5.25,12.01,47.59359,-54.27349
2024-03-12 12:14:01+00:00,240.0,3.96,236.0,4.3,12.73,47.59359,-54.27349
2024-03-12 12:24:01+00:00,260.0,3.9,257.0,4.27,12.73,47.59359,-54.27349
2024-03-12 12:34:01+00:00,286.0,3.86,286.0,4.03,12.73,47.59359,-54.27349
2024-03-12 12:44:01+00:00,89.0,1.44,102.0,1.69,12.73,47.59359,-54.27349
2024-03-12 12:54:01+00:00,220.0,4.93,218.0,5.28,12.73,47.59359,-54.27349
2024-03-12 13:04:01+00:00,220.0,3.41,227.0,4.76,12.73,47.59359,-54.27349
2024-03-12 13:14:00+00:00,228.0,3.66,234.0,4.42,13.44,47.59359,-54.27349
2024-03-12 13:24:00+00:00,171.0,2.49,158.0,2.77,13.44,47.59359,-54.27349
2024-03-12 13:34:00+00:00,183.0,4.4,196.0,5.1,13.44,47.59359,-54.27349
2024-03-12 13:44:00+00:00,164.0,4.01,163.0,4.32,13.44,47.59359,-54.27349
2024-03-12 13:54:00+00:00,172.0,4.35,164.0,4.97,13.44,47.59359,-54.27349
2024-03-12 14:04:00+00:00,174.0,4.23,214.0,5.06,13.44,47.59359,-54.27349
2024-03-12 14:14:00+00:00,192.0,4.01,210.0,4.99,13.76,47.59359,-54.27349
2024-03-12 14:24:00+00:00,204.0,4.74,205.0,5.07,13.76,47.59359,-54.27349
2024-03-12 14:34:00+00:00,197.0,5.02,201.0,5.53,13.76,47.59359,-54.27349
2024-03-12 14:44:00+00:00,158.0,5.66,159.0,6.15,13.76,47.59359,-54.27349
2024-03-12 14:54:00+00:00,161.0,5.72,161.0,6.16,13.76,47.59359,-54.27349
2024-03-12 15:04:00+00:00,174.0,4.86,164.0,5.34,13.76,47.59359,-54.27349
2024-03-12 15:14:00+00:00,164.0,4.38,151.0,5.38,14.4,47.59359,-54.27349
2024-03-12 15:24:00+00:00,170.0,4.14,168.0,4.73,14.4,47.59359,-54.27349
2024-03-12 15:34:00+00:00,171.0,5.84,167.0,6.46,14.4,47.59359,-54.27349
2024-03-12 15:44:00+00:00,175.0,5.66,169.0,6.33,14.4,47.59359,-54.27349
2024-03-12 15:54:00+00:00,169.0,5.31,161.0,6.19,14.4,47.59359,-54.27349
2024-03-12 16:04:00+00:00,176.0,4.96,170.0,5.38,14.4,47.59359,-54.27349
2024-03-12 16:14:00+00:00,162.0,4.85,162.0,5.1,14.0,47.59359,-54.27349
2024-03-12 16:24:00+00:00,166.0,4.59,168.0,4.9,14.0,47.59359,-54.27349
2024-03-12 16:34:00+00:00,193.0,3.85,217.0,4.75,14.0,47.59359,-54.27349
2024-03-12 16:44:00+00:00,175.0,3.81,164.0,4.17,14.0,47.59359,-54.27349
2024-03-12 16:54:00+00:00,191.0,3.71,197.0,3.99,14.0,47.59359,-54.27349
2024-03-12 17:04:00+00:00,170.0,3.5,148.0,4.19,14.0,47.59359,-54.27349
2024-03-12 17:14:00+00:00,167.0,4.19,161.0,4.46,14.0,47.59359,-54.27349
2024-03-12 17:24:00+00:00,202.0,5.9,204.0,6.42,14.0,47.59359,-54.27349
2024-03-12 17:34:00+00:00,165.0,6.07,166.0,6.47,14.0,47.59359,-54.27349
2024-03-12 17:44:00+00:00,154.0,4.98,153.0,5.2,14.0,47.59359,-54.27349
2024-03-12 17:54:00+00:00,159.0,5.58,160.0,5.71,14.0,47.59359,-54.27349
2024-03-12 18:04:00+00:00,194.0,4.96,214.0,5.87,14.0,47.59359,-54.27349
2024-03-12 18:14:00+00:00,210.0,4.0,222.0,4.88,14.4,47.59359,-54.27349
2024-03-12 18:24:00+00:00,185.0,2.99,223.0,4.35,14.4,47.59359,-54.27349
2024-03-12 18:34:00+00:00,147.0,3.11,147.0,3.31,14.4,47.59359,-54.27349
2024-03-12 18:44:00+00:00,145.0,2.61,146.0,2.89,14.4,47.59359,-54.27349
2024-03-12 18:54:00+00:00,175.0,1.6,230.0,2.66,14.4,47.59359,-54.27349
2024-03-12 19:04:00+00:00,224.0,1.54,237.0,2.57,14.4,47.59359,-54.27349
2024-03-12 19:14:00+00:00,206.0,1.83,226.0,2.84,13.92,47.59359,-54.27349
2024-03-12 19:24:00+00:00,225.0,2.41,236.0,3.16,13.92,47.59359,-54.27349
2024-03-12 19:34:00+00:00,238.0,2.88,239.0,3.12,13.92,47.59359,-54.27349
2024-03-12 19:44:00+00:00,254.0,1.95,254.0,2.16,13.92,47.59359,-54.27349
2024-03-12 19:54:00+00:00,267.0,1.33,265.0,1.53,13.92,47.59359,-54.27349
2024-03-12 20:04:00+00:00,275.0,0.98,279.0,1.07,13.92,47.59359,-54.27349
2024-03-12 20:14:00+00:00,281.0,0.93,286.0,1.06,13.53,47.59359,-54.27349
2024-03-12 20:24:00+00:00,315.0,0.01,274.0,0.0,13.53,47.59359,-54.27349
2024-03-12 20:34:00+00:00,315.0,0.01,230.0,0.0,13.53,47.59359,-54.27349
2024-03-12 20:44:00+00:00,213.0,0.74,211.0,0.89,13.53,47.59359,-54.27349
2024-03-12 20:54:00+00:00,202.0,0.71,203.0,0.75,13.53,47.59359,-54.27349
2024-03-12 21:04:00+00:00,315.0,0.01,5.0,0.0,13.53,47.59359,-54.27349
2024-03-12 21:14:00+00:00,167.0,0.36,164.0,0.4,13.21,47.59359,-54.27349
2024-03-12 21:24:00+00:00,67.0,0.72,68.0,0.91,13.21,47.59359,-54.27349
2024-03-12 21:34:00+00:00,51.0,1.35,62.0,1.58,13.21,47.59359,-54.27349
2024-03-12 21:44:00+00:00,328.0,1.15,60.0,2.39,13.21,47.59359,-54.27349
2024-03-12 21:54:00+00:00,38.0,1.95,50.0,2.5,13.21,47.59359,-54.27349
2024-03-12 22:04:00+00:00,32.0,1.24,55.0,1.96,13.21,47.59359,-54.27349
2024-03-12 22:14:00+00:00,46.0,1.93,65.0,3.55,12.49,47.59359,-54.27349
2024-03-12 22:24:00+00:00,32.0,1.86,53.0,3.09,12.49,47.59359,-54.27349
2024-03-12 22:34:00+00:00,42.0,2.51,58.0,3.7,12.49,47.59359,-54.27349
2024-03-12 22:44:00+00:00,36.0,2.95,52.0,3.75,12.49,47.59359,-54.27349
2024-03-12 22:54:00+00:00,29.0,3.17,48.0,4.14,12.49,47.59359,-54.27349
2024-03-12 23:04:00+00:00,40.0,5.5,43.0,5.82,12.49,47.59359,-54.27349
2024-03-12 23:14:00+00:00,40.0,4.42,39.0,5.18,12.25,47.59359,-54.27349
2024-03-12 23:24:00+00:00,43.0,5.35,40.0,5.85,12.25,47.59359,-54.27349
2024-03-12 23:34:00+00:00,52.0,5.19,55.0,6.0,12.25,47.59359,-54.27349
2024-03-12 23:44:00+00:00,49.0,5.93,59.0,8.13,12.25,47.59359,-54.27349
2024-03-12 23:54:00+00:00,55.0,4.7,53.0,5.2,12.25,47.59359,-54.27349
